NOAA 16 DEB

Satellite information

Favourite Embed

Satellite Type and Status

DEBRISIN ORBIT

Key statistics

Satellite NOAA 16 DEB at a glance.

Uptime

9215

Days in orbit

Revolutions

≈ 14.3

Per day

Orbit

SSO

Sun Synchronous Orbit

Inclination

98.7

Latest

Satellite identification and parameters

Extended collection of information and parameters for NOAA 16 DEB.

Object identification

Identified? True

Debris? True

Object name: NOAA 16 DEB

International designator: 2000-055HA

Object number (NORAD): 41298

Object ID (CCSDS): 41298

Country: UNITED STATES OF AMERICA (US)

Current information (Y/N): Y

RCS size: SMALL

Orbital parameters

Period: 100.966 minutes

Inclination: 98.7212 deg

SMA: 7182.534 km

Apoapsis: 840.908 km

Periapsis: 767.889 km

RAAN: 57.1295 deg

Eccentricy: 0.00508311

Argument of periapsis: 212.4337 deg

Mean anomaly: 147.3716 deg

Mean motion: 14.26219067 rev/day

Mean motion (dot): 0.00008466 rev/day2

B* drag term: 0.003499593 1/REarth

Two-line elements (TLE)

Creation date: Dec. 11, 2025, 7:14 p.m.

Reference frame: TEME

Reference center: EARTH

Epoch: Dec. 11, 2025, 11:17 a.m. UTC

TLE line 0: 0 NOAA 16 DEB

TLE line 1: 1 41298U 00055HA 25345.47077286 .00008466 00000-0 34996-2 0 9991

TLE line 2: 2 41298 98.7212 57.1295 0050831 212.4337 147.3716 14.26219067513908

Live tracking on map

Real-time ground track for satellite NOAA 16 DEB.

In-orbit conjunctions

A list of the most updated potential collisions computed for object NOAA 16 DEB.

Target Orbit TCA Probability of collision Miss distance Type
SL-8 R/B LEO 2025-09-15 07:41:50 0.0002061268 336.0 (m) ROCKET BODY
COSMOS 1275 DEB LEO 2025-09-06 08:58:11 0.0001280078 59.0 (m) DEBRIS
IRIDIUM 33 DEB LEO 2024-12-28 03:54:11 0.0001772875 160.0 (m) DEBRIS

Associated space launch

The NOAA K, L and M POES satellites begin the fifth generation of improved environmental monitoring in support of NOAA missions. The instrument payload has significant improvements and additions/deletions. The instrument changes have effected the spacecraft subsystems and data formats.

NOAA 16 DEB was lifted into orbit during the mission ‘Titan II SLV | NOAA 16’, on board a Titan II SLV space rocket.

The launch took place on Sept. 21, 2000, 10:22 a.m. from Space Launch Complex 4W.

For more information about the launch, click the button.

Launch to space Titan II SLV | NOAA 16
Titan II SLV | NOAA 16

Agency: N/A

Status: Launch Successful

Launch date: Sept. 21, 2000, 10:22 a.m. UTC

Rocket: Titan II SLV

Launch pad: Space Launch Complex 4W

Location: Vandenberg SFB, CA, USA

...

Latest news about this satellite

There are no fresh news available about this satellite. Check back as we update our databases every day.


Newsletter sign-up

Weekly statistics, charts and insights to help you stay on top of the space industry.